Change the Weather History Date:

Saturday, August 3, 2013

  Actual Average Record
Temperature  
Mean Temperature 71 °F 76 °F  
Max Temperature 80 °F 90 °F 107 °F (1961)
Min Temperature 61 °F 61 °F 52 °F (1956)
Degree Days  
Heating Degree Days 0 0  
Month to date heating degree days 0 0  
Since 1 June heating degree days 58 68  
Since 1 July heating degree days 0 8  
Cooling Degree Days 6 11  
Month to date cooling degree days 18 33  
Year to date cooling degree days 635 473  
Since 1 June cooling degree days 578 436  
Growing Degree Days 20 (Base 50)    
Moisture  
Dew Point 56 °F    
Average Humidity 65    
Maximum Humidity 90    
Minimum Humidity 39    
Precipitation  
Precipitation T in 0.01 in 0.25 in (1962)
Month to date precipitation 0.10 0.03  
Year to date precipitation 3.71 4.50  
Sea Level Pressure  
Sea Level Pressure 30.05 in    
Wind  
Wind Speed 3 mph (ENE)    
Max Wind Speed 9 mph    
Max Gust Speed 14 mph    
Visibility 10 miles    
Events      
T = Trace of Precipitation, MM = Missing Value Source: NWS Daily Summary

Daily Weather History Graph

Daily Weather History Graph

Search for Another Location

Airport or City:

Trip Planner

Search our weather history database for the weather conditions in past years. The results will help you decide how hot, cold, wet, or windy it might be!

Date:

Astronomy

Aug. 03, 2013 Rise Set
Actual Time 5:39 AM PDT 8:28 PM PDT
Civil Twilight 5:04 AM PDT 9:03 PM PDT
Nautical Twilight 4:18 AM PDT 9:48 PM PDT
Astronomical Twilight 3:25 AM PDT 10:41 PM PDT
Moon 2:50 AM PDT (8/3) 6:15 PM PDT (8/3)
Length of Visible Light 15h 59m
Length of Day
14h 48m
Waning Crescent, 9% of the Moon is Illuminated
Aug 3
Waning Crescent
Aug 6
New
Aug 14
First Quarter
Aug 20
Full
Aug 28
Last Quarter

Hourly Weather History & Observations

Time (PDT) Temp. Heat Index Dew Point Humidity Pressure Visibility Wind Dir Wind Speed Gust Speed Precip Events Conditions
12:53 AM 63.0 °F - 57.0 °F 81% 30.04 in 10.0 mi Calm Calm - N/A   Overcast
1:53 AM 62.1 °F - 57.0 °F 84% 30.04 in 10.0 mi NE 3.5 mph - 0.00 in   Overcast
2:53 AM 62.1 °F - 57.0 °F 84% 30.04 in 10.0 mi Calm Calm - N/A   Overcast
3:53 AM 61.0 °F - 57.0 °F 87% 30.04 in 10.0 mi Calm Calm - N/A   Overcast
4:53 AM 62.1 °F - 57.0 °F 84% 30.05 in 10.0 mi Calm Calm - N/A   Overcast
5:53 AM 61.0 °F - 57.9 °F 90% 30.06 in 10.0 mi Calm Calm - N/A   Overcast
6:53 AM 61.0 °F - 57.9 °F 90% 30.07 in 10.0 mi Calm Calm - N/A   Overcast
7:27 AM 62.6 °F - 57.2 °F 82% 30.09 in 10.0 mi NNE 4.6 mph - N/A   Overcast
7:53 AM 63.0 °F - 57.0 °F 81% 30.08 in 10.0 mi ENE 4.6 mph - N/A   Overcast
8:24 AM 62.6 °F - 57.2 °F 82% 30.10 in 10.0 mi NNE 4.6 mph - N/A   Overcast
8:53 AM 64.0 °F - 57.9 °F 80% 30.09 in 10.0 mi NE 4.6 mph - N/A   Overcast
9:53 AM 64.9 °F - 57.0 °F 75% 30.09 in 10.0 mi Calm Calm - N/A   Overcast
10:11 AM 64.4 °F - 57.2 °F 77% 30.10 in 10.0 mi Variable 3.5 mph - N/A   Overcast
10:53 AM 66.0 °F - 57.0 °F 73% 30.10 in 10.0 mi Calm Calm - N/A   Overcast
11:53 AM 70.0 °F - 55.9 °F 61% 30.09 in 10.0 mi East 5.8 mph - N/A   Overcast
12:53 PM 75.0 °F - 55.0 °F 50% 30.08 in 10.0 mi ENE 6.9 mph - N/A   Overcast
1:53 PM 75.0 °F - 55.0 °F 50% 30.07 in 10.0 mi Variable 5.8 mph - N/A   Mostly Cloudy
2:53 PM 75.9 °F - 54.0 °F 46% 30.06 in 10.0 mi Calm Calm - N/A   Overcast
3:53 PM 79.0 °F - 54.0 °F 42% 30.03 in 10.0 mi Variable 5.8 mph - N/A   Scattered Clouds
4:53 PM 80.1 °F 79.9 °F 53.1 °F 39% 30.01 in 10.0 mi Variable 3.5 mph - N/A   Clear
5:53 PM 79.0 °F - 54.0 °F 42% 29.99 in 10.0 mi ESE 3.5 mph - N/A   Clear
6:53 PM 79.0 °F - 54.0 °F 42% 29.99 in 10.0 mi SSW 3.5 mph - N/A   Clear
7:53 PM 75.9 °F - 54.0 °F 46% 29.99 in 10.0 mi South 5.8 mph - N/A   Clear
8:53 PM 70.0 °F - 54.0 °F 57% 30.00 in 10.0 mi South 4.6 mph - N/A   Clear
9:53 PM 69.1 °F - 55.0 °F 61% 30.01 in 10.0 mi WSW 4.6 mph - N/A   Clear
10:53 PM 70.0 °F - 54.0 °F 57% 30.01 in 10.0 mi Calm Calm - N/A   Clear
11:53 PM 69.1 °F - 54.0 °F 58% 30.00 in 10.0 mi NW 5.8 mph - N/A   Clear